Tracking 25710 objects as of 6-Jul-2022
HD Live streaming from Space Station
objects crossing your sky now

SPACEBEE-112

Track SPACEBEE-112 now!
10-day predictions


NORAD ID: 52025
Int'l Code: 2022-026T
Perigee: 506.7 km
Apogee: 542.3 km
Inclination: 97.5 °
Period: 95.0 minutes
Semi major axis: 6895 km
RCS: Unknown
Launch date: March 15, 2022
Source: United States (US)
Launch site: Kodiak Island, Alaska (KODAK)
aabbcc
Your satellite tracking list
Your tracking list is empty




NASA's NSSDC Master Catalog

Two Line Element Set (TLE):
1 52025U 22026T   22186.88103106  .00006577  00000-0  34123-3 0  9993
2 52025  97.5030 186.5914 0025851 206.2944 153.6979 15.16188311 16857
Source of the keplerian elements: AFSPC